星链-37891(STARLINK-37891)

导读

STARLINK-37891(NORAD编号69948)是美国SpaceX公司星链低轨通信星座的组成卫星,属于2026年上半年发射的批次,运行于近地低轨道(LEO)。 该卫星承担全球宽带互联网接入任务,可兼容直连手机与普通用户终端,无需专用硬件即可为偏远地区提供网络服务。截至2026年7月,星链在轨活跃卫星超1万颗,整网健康率超过99.9%,该卫星当前处于正常在轨运行状态,参与星座全球覆盖组网,服务覆盖民用通信、应急联网等场景。

Basic Information
目录编号:
69948
目录名称:
STARLINK-37891
国际标识:
2026-157F
轨道中心:
EARTH
卫星名称:
星链-37891
卫星全名:
星链-37891(STARLINK-37891)
卫星状态:
在轨 (已飞行57 天)
发射日期:
2026-07-09 UTC
国别 :
美国 (US)
星等 :
--
Orbit Information
数据来源 国际轨道数据
星历时间: 2026-09-04T09:40:14+0800
11小时前
查看轨道信息
半长轴: 6840.883km
偏心率: 0.0001568
轨道倾角: 53.163°
近地点辐角 50.300°
升交点赤经 50.299°
平近点角 309.814°
近地点: 461.673km
远地点: 463.819km
周期: 93.849分钟
每日圈数: 15.343858
Detailed Information
固有亮度:
5
最大亮度:
2.5
卫星平台:
Starlink V1.0
覆盖范围:
全球
运营商:
太空探索技术公司
运营商所在国:
美国
制造商(研发单位):
太空探索技术公司
制造商所在国:
美国
使用方式:
暂无
Satellite Introduction
Starlink 计划是 SpaceX 推出的全球卫星互联网项目,通过发射低轨道卫星,为全球尤其是偏远地区提供高速、低延迟的互联网服务。自 2019 年起,Starlink 已部署数千颗卫星,旨在缩小全球数字鸿沟,推动互联网普及。该项目还为军事、航空等行业提供通信支持,带来广泛经济效益。
2D Orbit Map
3D Orbit Map
Orbit Altitude Analysis Chart
Orbit Inclination Analysis Chart
Orbit Comprehensive Analysis Chart
View Comprehensive Chart
Conjunction Data List
Event ID Objects TCA Miss Dist (km) Collision Risk Probability Collision Risk Index (CRI) Action
CDM_260905-105405-927306-994821
2026-09-05T
10:54:51+0000
0.650 km
远距离
3.215851E-5 中风险 0.65
CDM_260829-143806-583506-994821
2026-08-29T
14:38:40+0000
1.280 km
极远距离
6.951471E-6 低风险 0.52
CDM_260829-214006-583506-994821
2026-08-29T
21:40:42+0000
1.506 km
极远距离
4.067405E-6 低风险 0.47
CDM_260905-131505-927306-994821
2026-09-05T
13:15:32+0000
1.456 km
极远距离
2.226786E-6 低风险 0.42
CDM_260905-062305-015906-994821
2026-09-05T
06:23:38+0000
2.609 km
极远距离
1.334742E-6 低风险 0.38
CDM_260829-161206-583506-994821
2026-08-29T
16:12:27+0000
2.866 km
极远距离
9.413186E-7 极低风险 0.34
CDM_260905-061405-084106-994821
2026-09-05T
06:14:46+0000
2.689 km
极远距离
7.250844E-7 极低风险 0.32
CDM_260905-122805-927306-994821
2026-09-05T
12:28:38+0000
2.713 km
极远距离
5.604424E-7 极低风险 0.3